When you browse on this site, cookies collect data to enhance your experience and personalize the content and advertising you see.
Visit our Privacy Policy to learn more. By continuing to use the site, you agree to this use of cookies and data.
  • en Suisse
  • Liste des pays
  • À 7 jours
  • Température de l'eau
  • Carte météo
  • Widgets météo
  • user-avatar
    Se connecter

    Météo par heure à Linz

    Ce jour, 30 Mai, Samedi

    Heure Température Précipitation Vent Pression Humidité
    00:00 +8°C° 0 mm 1 m/s 738 mmHg 87%
    01:00 +8°C° 0 mm 1 m/s 738 mmHg 90%
    02:00 +6°C° 0 mm 0 m/s 737 mmHg 90%
    03:00 +6°C° 0 mm 0 m/s 737 mmHg 90%
    04:00 +6°C° 0 mm 0 m/s 737 mmHg 91%
    05:00 +7°C° 0 mm 0 m/s 737 mmHg 88%
    06:00 +9°C° 0 mm 0 m/s 737 mmHg 85%
    07:00 +11°C° 0 mm 0 m/s 736 mmHg 82%
    08:00 +12°C° 0.2 mm 1 m/s 736 mmHg 81%
    09:00 +13°C° 0.2 mm 1 m/s 736 mmHg 79%
    10:00 +14°C° 0.2 mm 1 m/s 735 mmHg 77%
    11:00 +14°C° 0.4 mm 1 m/s 735 mmHg 79%
    12:00 +14°C° 0.4 mm 1 m/s 735 mmHg 80%
    13:00 +14°C° 0.4 mm 1 m/s 735 mmHg 82%
    14:00 +14°C° 0.4 mm 1 m/s 735 mmHg 80%
    15:00 +14°C° 0.4 mm 1 m/s 734 mmHg 79%
    16:00 +14°C° 0.4 mm 1 m/s 734 mmHg 78%
    17:00 +13°C° 0.3 mm 1 m/s 735 mmHg 81%
    18:00 +13°C° 0.3 mm 1 m/s 735 mmHg 83%
    19:00 +12°C° 0.3 mm 2 m/s 735 mmHg 86%
    20:00 +11°C° 0 mm 1 m/s 735 mmHg 87%
    21:00 +10°C° 0 mm 1 m/s 735 mmHg 89%
    22:00 +8°C° 0 mm 1 m/s 736 mmHg 91%
    23:00 +8°C° 0 mm 1 m/s 736 mmHg 91%

    Demain, 31 Mai, Dimanche

    Heure Température Précipitation Vent Pression Humidité
    00:00 +8°C° 0 mm 1 m/s 736 mmHg 91%
    01:00 +7°C° 0 mm 1 m/s 735 mmHg 92%
    02:00 +7°C° 0 mm 1 m/s 735 mmHg 92%
    03:00 +7°C° 0 mm 1 m/s 735 mmHg 92%
    04:00 +7°C° 0 mm 1 m/s 735 mmHg 92%
    05:00 +8°C° 0 mm 1 m/s 735 mmHg 89%
    06:00 +10°C° 0 mm 1 m/s 735 mmHg 87%
    07:00 +11°C° 0 mm 1 m/s 735 mmHg 84%
    08:00 +12°C° 0 mm 2 m/s 735 mmHg 80%
    09:00 +13°C° 0 mm 2 m/s 735 mmHg 76%
    10:00 +13°C° 0 mm 3 m/s 735 mmHg 71%
    11:00 +13°C° 0.1 mm 3 m/s 735 mmHg 71%
    12:00 +13°C° 0.1 mm 3 m/s 735 mmHg 71%
    13:00 +13°C° 0.1 mm 3 m/s 735 mmHg 71%
    14:00 +13°C° 0.4 mm 2 m/s 735 mmHg 78%
    15:00 +12°C° 0.4 mm 2 m/s 735 mmHg 85%
    16:00 +10°C° 0.4 mm 2 m/s 735 mmHg 92%
    17:00 +10°C° 1 mm 2 m/s 735 mmHg 94%
    18:00 +9°C° 1 mm 2 m/s 735 mmHg 95%
    19:00 +9°C° 1 mm 2 m/s 735 mmHg 97%
    20:00 +9°C° 0.8 mm 2 m/s 735 mmHg 97%
    21:00 +9°C° 0.8 mm 2 m/s 735 mmHg 97%
    22:00 +9°C° 0.8 mm 2 m/s 736 mmHg 97%
    23:00 +9°C° 0.2 mm 2 m/s 736 mmHg 97%

    Après-demain, 1 Juin, Lundi

    Heure Température Précipitation Vent Pression Humidité
    00:00 +9°C° 0.2 mm 2 m/s 735 mmHg 97%
    01:00 +10°C° 0.2 mm 1 m/s 735 mmHg 97%
    02:00 +10°C° 0 mm 1 m/s 735 mmHg 97%
    03:00 +10°C° 0 mm 1 m/s 735 mmHg 96%
    04:00 +10°C° 0 mm 1 m/s 735 mmHg 96%
    05:00 +11°C° 0 mm 1 m/s 735 mmHg 95%
    06:00 +11°C° 0 mm 1 m/s 736 mmHg 95%
    07:00 +12°C° 0 mm 1 m/s 736 mmHg 94%
    08:00 +13°C° 0.1 mm 1 m/s 736 mmHg 90%
    09:00 +14°C° 0.1 mm 1 m/s 736 mmHg 87%
    10:00 +15°C° 0.1 mm 1 m/s 736 mmHg 84%
    11:00 +17°C° 0.1 mm 2 m/s 736 mmHg 76%
    12:00 +18°C° 0.1 mm 2 m/s 736 mmHg 68%
    13:00 +20°C° 0.1 mm 2 m/s 736 mmHg 60%
    14:00 +20°C° 0.1 mm 2 m/s 735 mmHg 60%
    15:00 +20°C° 0.1 mm 2 m/s 735 mmHg 59%
    16:00 +20°C° 0.1 mm 2 m/s 735 mmHg 58%
    17:00 +19°C° 0 mm 2 m/s 735 mmHg 64%
    18:00 +18°C° 0 mm 2 m/s 735 mmHg 71%
    19:00 +16°C° 0 mm 2 m/s 735 mmHg 77%
    20:00 +15°C° 0 mm 2 m/s 735 mmHg 81%
    21:00 +13°C° 0 mm 2 m/s 736 mmHg 85%
    22:00 +10°C° 0 mm 2 m/s 736 mmHg 89%
    23:00 +10°C° 0 mm 2 m/s 736 mmHg 90%

    2 Juin, Mardi

    Heure Température Précipitation Vent Pression Humidité
    00:00 +9°C° 0 mm 2 m/s 736 mmHg 91%
    01:00 +9°C° 0 mm 1 m/s 736 mmHg 92%
    02:00 +9°C° 0 mm 1 m/s 736 mmHg 92%
    03:00 +8°C° 0 mm 1 m/s 736 mmHg 93%
    04:00 +8°C° 0 mm 1 m/s 736 mmHg 93%
    05:00 +9°C° 0 mm 2 m/s 736 mmHg 87%
    06:00 +10°C° 0 mm 2 m/s 735 mmHg 82%
    07:00 +13°C° 0 mm 2 m/s 735 mmHg 76%
    08:00 +13°C° 0 mm 3 m/s 735 mmHg 70%
    09:00 +14°C° 0 mm 3 m/s 735 mmHg 64%
    10:00 +17°C° 0 mm 3 m/s 735 mmHg 58%
    11:00 +17°C° 0 mm 3 m/s 734 mmHg 57%
    12:00 +18°C° 0 mm 3 m/s 734 mmHg 57%
    13:00 +18°C° 0 mm 3 m/s 734 mmHg 56%
    14:00 +18°C° 0 mm 3 m/s 733 mmHg 57%
    15:00 +18°C° 0 mm 3 m/s 733 mmHg 58%
    16:00 +18°C° 0 mm 3 m/s 733 mmHg 59%
    17:00 +17°C° 0 mm 3 m/s 732 mmHg 65%
    18:00 +16°C° 0 mm 2 m/s 732 mmHg 72%
    19:00 +15°C° 0 mm 2 m/s 732 mmHg 79%
    20:00 +13°C° 0 mm 2 m/s 732 mmHg 82%
    21:00 +12°C° 0 mm 2 m/s 732 mmHg 85%
    22:00 +10°C° 0 mm 1 m/s 732 mmHg 88%
    23:00 +10°C° 0 mm 1 m/s 731 mmHg 89%

    3 Juin, Mercredi

    Heure Température Précipitation Vent Pression Humidité
    00:00 +9°C° 0 mm 1 m/s 731 mmHg 89%
    01:00 +9°C° 0 mm 1 m/s 730 mmHg 90%
    02:00 +9°C° 0 mm 1 m/s 730 mmHg 90%
    03:00 +8°C° 0 mm 1 m/s 730 mmHg 90%
    04:00 +8°C° 0 mm 1 m/s 729 mmHg 90%
    05:00 +10°C° 0 mm 1 m/s 729 mmHg 86%
    06:00 +12°C° 0 mm 2 m/s 729 mmHg 81%
    07:00 +13°C° 0 mm 2 m/s 729 mmHg 76%
    08:00 +15°C° 0 mm 2 m/s 729 mmHg 72%
    09:00 +16°C° 0 mm 3 m/s 728 mmHg 68%
    10:00 +17°C° 0 mm 4 m/s 728 mmHg 65%
    11:00 +18°C° 0 mm 4 m/s 728 mmHg 62%
    12:00 +19°C° 0 mm 4 m/s 728 mmHg 59%
    13:00 +19°C° 0 mm 4 m/s 727 mmHg 56%
    14:00 +19°C° 0 mm 4 m/s 727 mmHg 56%
    15:00 +19°C° 0 mm 4 m/s 727 mmHg 56%
    16:00 +19°C° 0 mm 4 m/s 727 mmHg 56%
    17:00 +18°C° 0 mm 3 m/s 727 mmHg 62%
    18:00 +17°C° 0 mm 3 m/s 727 mmHg 68%
    19:00 +15°C° 0 mm 2 m/s 727 mmHg 75%
    20:00 +14°C° 0 mm 2 m/s 728 mmHg 78%
    21:00 +12°C° 0 mm 1 m/s 728 mmHg 82%
    22:00 +10°C° 0 mm 1 m/s 728 mmHg 85%
    23:00 +10°C° 0 mm 1 m/s 728 mmHg 86%

    4 Juin, Jeudi

    Heure Température Précipitation Vent Pression Humidité
    00:00 +9°C° 0 mm 1 m/s 728 mmHg 87%
    01:00 +9°C° 0 mm 1 m/s 728 mmHg 88%
    02:00 +8°C° 0 mm 0 m/s 728 mmHg 88%
    03:00 +7°C° 0 mm 0 m/s 728 mmHg 89%
    04:00 +7°C° 0 mm 0 m/s 728 mmHg 90%
    05:00 +9°C° 0 mm 0 m/s 728 mmHg 85%
    06:00 +11°C° 0 mm 0 m/s 729 mmHg 80%
    07:00 +13°C° 0 mm 0 m/s 729 mmHg 74%
    08:00 +14°C° 0 mm 0 m/s 729 mmHg 69%
    09:00 +18°C° 0 mm 1 m/s 729 mmHg 64%
    10:00 +20°C° 0 mm 1 m/s 729 mmHg 59%
    11:00 +20°C° 0 mm 1 m/s 729 mmHg 55%
    12:00 +21°C° 0 mm 1 m/s 728 mmHg 52%
    13:00 +22°C° 0 mm 1 m/s 728 mmHg 48%
    14:00 +22°C° 0 mm 1 m/s 728 mmHg 48%
    15:00 +22°C° 0 mm 1 m/s 728 mmHg 49%
    16:00 +22°C° 0 mm 1 m/s 728 mmHg 49%
    17:00 +21°C° 0 mm 1 m/s 728 mmHg 56%
    18:00 +19°C° 0 mm 1 m/s 728 mmHg 64%
    19:00 +18°C° 0 mm 1 m/s 727 mmHg 72%
    20:00 +15°C° 0 mm 1 m/s 728 mmHg 75%
    21:00 +14°C° 0 mm 1 m/s 728 mmHg 79%
    22:00 +12°C° 0 mm 1 m/s 728 mmHg 82%
    23:00 +11°C° 0 mm 1 m/s 728 mmHg 83%
    Voir plus